Provincetown, MA

3:54 AM EDT on October 18, 2017 (GMT -0400)
Provincetown Municipal

Weather History for KPVC - May, 2013

Change the Weather History Date:

Monday, May 27, 2013

  Actual Average Record
Temperature  
Mean Temperature 57 °F -  
Max Temperature 66 °F 63 °F 82 °F (2011)
Min Temperature 48 °F 49 °F 46 °F (1997)
Degree Days  
Heating Degree Days 8    
Growing Degree Days 7 (Base 50)    
Moisture  
Dew Point 42 °F    
Average Humidity 61    
Maximum Humidity 88    
Minimum Humidity 30    
Precipitation  
Precipitation 0.00 in - - ()
Sea Level Pressure  
Sea Level Pressure 30.13 in    
Wind  
Wind Speed 12 mph (West)    
Max Wind Speed 17 mph    
Max Gust Speed 25 mph    
Visibility 10 miles    
Events      
Averages and records for this station are not official NWS values.
T = Trace of Precipitation, MM = Missing Value Source: NWS Daily Summary

Daily Weather History Graph

Daily Weather History Graph

Search for Another Location

Airport or City:

Trip Planner

Search our weather history database for the weather conditions in past years. The results will help you decide how hot, cold, wet, or windy it might be!

Date:

Astronomy

May. 27, 2013 Rise Set
Actual Time 5:10 AM EDT 8:06 PM EDT
Civil Twilight 4:37 AM EDT 8:39 PM EDT
Nautical Twilight 3:54 AM EDT 9:22 PM EDT
Astronomical Twilight 3:05 AM EDT 10:11 PM EDT
Moon 10:41 PM EDT (5/27) 7:44 AM EDT (5/27)
Length of Visible Light 16h 02m
Length of Day
14h 56m
Waning Gibbous, 91% of the Moon is Illuminated
May 27
Waning Gibbous
May 31
Last Quarter
Jun 8
New
Jun 16
First Quarter
Jun 23
Full

Hourly Weather History & Observations

Time (EDT) Temp. Dew Point Humidity Pressure Visibility Wind Dir Wind Speed Gust Speed Precip Events Conditions
12:15 AM 50.0 °F 39.2 °F 66% 30.09 in 10.0 mi NW 15.0 mph 21.9 mph N/A   Clear
12:35 AM 50.0 °F 39.2 °F 66% 30.10 in 10.0 mi NW 16.1 mph 23.0 mph N/A   Clear
12:55 AM 50.0 °F 41.0 °F 71% 30.09 in 10.0 mi WNW 17.3 mph 20.7 mph N/A   Scattered Clouds
1:15 AM 50.0 °F 41.0 °F 71% 30.09 in 10.0 mi WNW 16.1 mph 21.9 mph N/A   Overcast
1:35 AM 50.0 °F 42.8 °F 76% 30.09 in 10.0 mi WNW 16.1 mph 20.7 mph N/A   Mostly Cloudy
1:55 AM 48.2 °F 39.2 °F 71% 30.10 in 10.0 mi West 16.1 mph 21.9 mph N/A   Mostly Cloudy
2:15 AM 48.2 °F 39.2 °F 71% 30.10 in 10.0 mi West 13.8 mph 21.9 mph N/A   Scattered Clouds
2:35 AM 48.2 °F 39.2 °F 71% 30.10 in 10.0 mi West 17.3 mph 21.9 mph N/A   Clear
2:55 AM 48.2 °F 39.2 °F 71% 30.10 in 10.0 mi West 17.3 mph 25.3 mph N/A   Clear
3:15 AM 48.2 °F 39.2 °F 71% 30.11 in 10.0 mi West 15.0 mph - N/A   Clear
3:35 AM 48.2 °F 41.0 °F 76% 30.11 in 10.0 mi West 13.8 mph 18.4 mph N/A   Clear
3:55 AM 48.2 °F 39.2 °F 71% 30.11 in 10.0 mi West 16.1 mph 20.7 mph N/A   Clear
4:15 AM 48.2 °F 41.0 °F 76% 30.12 in 10.0 mi West 16.1 mph 20.7 mph N/A   Clear
4:35 AM 48.2 °F 41.0 °F 76% 30.12 in 10.0 mi West 12.7 mph - N/A   Clear
4:55 AM 48.2 °F 41.0 °F 76% 30.12 in 10.0 mi West 11.5 mph 17.3 mph N/A   Clear
5:15 AM 48.2 °F 42.8 °F 82% 30.13 in 10.0 mi West 10.4 mph - N/A   Clear
5:35 AM 48.2 °F 42.8 °F 82% 30.13 in 10.0 mi West 11.5 mph - N/A   Clear
5:55 AM 48.2 °F 42.8 °F 82% 30.13 in 10.0 mi West 10.4 mph 17.3 mph N/A   Clear
6:15 AM 48.2 °F 41.0 °F 76% 30.14 in 10.0 mi West 13.8 mph 20.7 mph N/A   Clear
6:35 AM 50.0 °F 42.8 °F 76% 30.14 in 10.0 mi West 11.5 mph 18.4 mph N/A   Clear
6:55 AM 50.0 °F 41.0 °F 71% 30.14 in 10.0 mi West 11.5 mph 17.3 mph N/A   Clear
7:15 AM 50.0 °F 41.0 °F 71% 30.13 in 10.0 mi West 12.7 mph - N/A   Clear
7:35 AM 51.8 °F 41.0 °F 67% 30.14 in 10.0 mi West 11.5 mph - N/A   Clear
7:55 AM 51.8 °F 42.8 °F 71% 30.14 in 10.0 mi WNW 10.4 mph - N/A   Clear
8:15 AM 51.8 °F 41.0 °F 67% 30.14 in 10.0 mi West 10.4 mph - N/A   Clear
8:35 AM 53.6 °F 41.0 °F 62% 30.14 in 10.0 mi West 10.4 mph - N/A   Clear
8:55 AM 53.6 °F 42.8 °F 67% 30.14 in 10.0 mi West 11.5 mph - N/A   Clear
9:15 AM 55.4 °F 42.8 °F 63% 30.14 in 10.0 mi WNW 11.5 mph - N/A   Clear
9:35 AM 55.4 °F 42.8 °F 63% 30.15 in 10.0 mi West 10.4 mph - N/A   Clear
9:55 AM 57.2 °F 42.8 °F 59% 30.15 in 10.0 mi West 10.4 mph - N/A   Clear
10:15 AM 57.2 °F 42.8 °F 59% 30.14 in 10.0 mi West 9.2 mph - N/A   Clear
10:35 AM 59.0 °F 44.6 °F 59% 30.15 in 10.0 mi West 9.2 mph - N/A   Clear
10:55 AM 60.8 °F 44.6 °F 55% 30.14 in 10.0 mi West 11.5 mph - N/A   Clear
11:15 AM 62.6 °F 42.8 °F 48% 30.14 in 10.0 mi West 9.2 mph - N/A   Clear
11:35 AM 60.8 °F 42.8 °F 52% 30.14 in 10.0 mi WNW 8.1 mph - N/A   Clear
11:55 AM 60.8 °F 41.0 °F 48% 30.14 in 10.0 mi WNW 8.1 mph - N/A   Clear
12:15 PM 62.6 °F 44.6 °F 52% 30.13 in 10.0 mi NW 4.6 mph - N/A   Clear
12:35 PM 62.6 °F 42.8 °F 48% 30.13 in 10.0 mi NNW 6.9 mph - N/A   Clear
12:55 PM 64.4 °F 42.8 °F 45% 30.12 in 10.0 mi NW 5.8 mph - N/A   Clear
1:15 PM 64.4 °F 44.6 °F 49% 30.12 in 10.0 mi WNW 10.4 mph - N/A   Clear
1:35 PM 64.4 °F 35.6 °F 34% 30.12 in 10.0 mi NW 10.4 mph - N/A   Clear
1:55 PM 66.2 °F 37.4 °F 35% 30.12 in 10.0 mi NW 6.9 mph - N/A   Clear
2:15 PM 64.4 °F 35.6 °F 34% 30.12 in 10.0 mi NW 5.8 mph - N/A   Clear
2:35 PM 66.2 °F 37.4 °F 35% 30.11 in 10.0 mi NNW 8.1 mph - N/A   Clear
2:55 PM 66.2 °F 37.4 °F 35% 30.11 in 10.0 mi NNW 4.6 mph - N/A   Clear
3:15 PM 66.2 °F 35.6 °F 32% 30.11 in 10.0 mi NW 5.8 mph - N/A   Clear
3:35 PM 66.2 °F 35.6 °F 32% 30.10 in 10.0 mi WNW 5.8 mph - N/A   Clear
3:55 PM 66.2 °F 35.6 °F 32% 30.10 in 10.0 mi WNW 5.8 mph - N/A   Clear
4:15 PM 66.2 °F 33.8 °F 30% 30.10 in 10.0 mi NW 4.6 mph - N/A   Clear
4:35 PM 66.2 °F 35.6 °F 32% 30.10 in 10.0 mi WSW 3.5 mph - N/A   Clear
4:55 PM 66.2 °F 35.6 °F 32% 30.10 in 10.0 mi SW 6.9 mph - N/A   Clear
5:15 PM 66.2 °F 37.4 °F 35% 30.10 in 10.0 mi SSW 12.7 mph - N/A   Clear
5:35 PM 64.4 °F 37.4 °F 37% 30.10 in 10.0 mi SSW 6.9 mph - N/A   Clear
5:55 PM 64.4 °F 35.6 °F 34% 30.10 in 10.0 mi SSW 8.1 mph - N/A   Clear
6:15 PM 64.4 °F 35.6 °F 34% 30.10 in 10.0 mi South 8.1 mph - N/A   Clear
6:35 PM 64.4 °F 35.6 °F 34% 30.11 in 10.0 mi SSW 9.2 mph - N/A   Clear
6:55 PM 62.6 °F 41.0 °F 45% 30.12 in 10.0 mi South 8.1 mph - N/A   Clear
7:15 PM 60.8 °F 44.6 °F 55% 30.12 in 7.0 mi South 6.9 mph - N/A   Clear
7:35 PM 59.0 °F 46.4 °F 63% 30.12 in 10.0 mi South 5.8 mph - N/A   Clear
7:55 PM 57.2 °F 46.4 °F 67% 30.12 in 10.0 mi SSW 4.6 mph - N/A   Clear
8:15 PM 55.4 °F 48.2 °F 77% 30.13 in 10.0 mi SSW 5.8 mph - N/A   Clear
8:35 PM 55.4 °F 48.2 °F 77% 30.14 in 10.0 mi SSW 8.1 mph - N/A   Clear
8:55 PM 55.4 °F 48.2 °F 77% 30.14 in 10.0 mi SSW 8.1 mph - N/A   Clear
9:15 PM 55.4 °F 48.2 °F 77% 30.15 in 10.0 mi SSW 8.1 mph - N/A   Clear
9:35 PM 55.4 °F 46.4 °F 72% 30.15 in 10.0 mi SW 8.1 mph - N/A   Clear
9:55 PM 55.4 °F 48.2 °F 77% 30.16 in 10.0 mi SSW 6.9 mph - N/A   Clear
10:15 PM 53.6 °F 46.4 °F 77% 30.17 in 10.0 mi SSW 5.8 mph - N/A   Clear
10:35 PM 53.6 °F 46.4 °F 77% 30.17 in 10.0 mi SW 4.6 mph - N/A   Clear
10:55 PM 51.8 °F 46.4 °F 82% 30.17 in 10.0 mi SSW 4.6 mph - N/A   Clear
11:15 PM 51.8 °F 48.2 °F 88% 30.18 in 10.0 mi SW 3.5 mph - N/A   Clear
11:35 PM 51.8 °F 46.4 °F 82% 30.18 in 10.0 mi SW 4.6 mph - N/A   Clear
11:55 PM 51.8 °F 46.4 °F 82% 30.19 in 10.0 mi Calm Calm - N/A   Clear